Location: Sungai Jaoh
(2.9167°N, 113.9167°E)
Time: 15:26:30
(UTC+00:00)

CZ-4B R/B - Pass Details

Date: 30 November 2020
Orbit: 485 x 653 km, 97.9° (Epoch: 26 January)

Event Time Altitude Azimuth Distance (km) Brightness Sun altitude
Rises 21:22:38 0° 7° (N) 2,881 6.3 -12.8°
Reaches altitude 10° 21:24:52 10° 4° (N) 1,955 5.4 -12.3°
Maximum altitude 21:29:05 66° 282° (WNW) 640 2.9 -11.3°
Drops below altitude 10° 21:33:06 10° 199° (SSW) 1,861 5.6 -10.4°
Sets 21:35:12 0° 197° (SSW) 2,730 6.4 -9.9°
